Simultaneous Nadir Overpasses (SNOs) Predictions

Prediction of SNOs between NOAA-20 and METOP-B Satellite Orbit:

Table of predicted SNOs for the next 14.0 days since TLE Epoch: 2/23/2018
Index Date (NOAA-20) Time (NOAA-20) Lat,Lon (NOAA-20) SZA (NOAA-20 ) Date (METOP-B) Time (METOP-B) Lat,Lon (METOP-B) SZA (METOP-B ) Distance(km) Time Diff (sec)
1 03/04/2018 11:50:28 73.38, -7.15 80.03 03/04/2018 11:51:36 73.34, -4.90 79.85 71.89 68
2 03/04/2018 12:41:10 -73.28, 160.38 100.10 03/04/2018 12:42:20 -73.22, 162.16 100.28 57.28 70
3 03/04/2018 13:31:52 73.08, -31.88 79.67 03/04/2018 13:33:04 73.01, -30.95 79.53 30.95 72
4 03/04/2018 14:22:34 -72.98, 135.65 100.46 03/04/2018 14:23:47 -72.95, 136.23 100.55 19.25 73
5 03/04/2018 15:13:17 72.83, -56.72 79.37 03/04/2018 15:14:29 72.84, -56.66 79.35 2.39 72
6 03/04/2018 16:04:01 -72.84, 110.59 100.65 03/04/2018 16:05:11 -72.82, 110.63 100.68 2.12 70
7 03/04/2018 16:54:47 72.84, -82.11 79.35 03/04/2018 16:55:51 72.82, -82.04 79.31 3.20 64
8 03/04/2018 17:45:30 -72.79, 85.31 100.72 03/04/2018 17:46:33 -72.80, 85.25 100.73 2.20 63
9 03/04/2018 18:36:16 72.79,-107.39 79.27 03/04/2018 18:37:13 72.80,-107.43 79.26 1.22 57
10 03/04/2018 19:27:00 -72.80, 59.92 100.74 03/04/2018 19:27:55 -72.78, 59.86 100.77 2.70 55
11 03/04/2018 20:17:46 72.80,-132.78 79.25 03/04/2018 20:18:35 72.77,-132.81 79.22 2.98 49
12 03/04/2018 21:08:30 -72.80, 34.53 100.77 03/04/2018 21:09:16 -72.81, 34.58 100.77 1.74 46
13 03/04/2018 21:59:16 72.81,-158.16 79.23 03/04/2018 21:59:56 72.80,-158.09 79.21 2.36 40
14 03/04/2018 22:50:00 -72.81, 9.15 100.79 03/04/2018 22:50:38 -72.79, 9.20 100.82 2.91 38
15 03/04/2018 23:40:45 72.76, 176.56 79.15 03/04/2018 23:41:18 72.78, 176.52 79.17 2.65 33
16 03/05/2018 00:31:29 -72.76, -16.13 100.86 03/05/2018 00:32:00 -72.76, -16.19 100.87 1.79 31
17 03/05/2018 01:22:15 72.77, 151.17 79.13 03/05/2018 01:22:40 72.76, 151.14 79.12 1.24 25
18 03/05/2018 02:12:59 -72.77, -41.52 100.89 03/05/2018 02:13:21 -72.79, -41.47 100.87 3.24 22
19 03/05/2018 03:03:45 72.77, 125.78 79.11 03/05/2018 03:04:01 72.79, 125.86 79.12 3.11 16
20 03/05/2018 03:54:29 -72.77, -66.91 100.91 03/05/2018 03:54:43 -72.77, -66.85 100.92 1.77 14
21 03/05/2018 04:45:15 72.78, 100.40 79.09 03/05/2018 04:45:23 72.77, 100.47 79.07 2.73 8
22 03/05/2018 05:35:58 -72.73, -92.19 100.98 03/05/2018 05:36:05 -72.75, -92.24 100.96 2.83 7
23 03/05/2018 06:26:44 72.73, 75.12 79.01 03/05/2018 06:26:45 72.74, 75.09 79.03 1.73 1
24 03/05/2018 07:17:28 -72.73,-117.57 101.01 03/05/2018 07:17:27 -72.73,-117.62 101.01 1.80 1
25 03/05/2018 08:08:14 72.74, 49.73 78.99 03/05/2018 08:08:07 72.72, 49.70 78.98 1.87 7
26 03/05/2018 08:58:58 -72.74,-142.96 101.03 03/05/2018 08:58:48 -72.76,-142.90 101.01 2.60 10
27 03/05/2018 09:49:44 72.74, 24.34 78.97 03/05/2018 09:49:28 72.75, 24.42 78.98 2.75 16
28 03/05/2018 10:40:28 -72.75,-168.34 101.05 03/05/2018 10:40:10 -72.73,-168.29 101.06 2.25 18
29 03/05/2018 11:31:14 72.75, -1.04 78.95 03/05/2018 11:30:50 72.73, -0.96 78.93 3.36 24
30 03/05/2018 12:21:57 -72.70, 166.37 101.12 03/05/2018 12:21:32 -72.71, 166.33 101.10 2.03 25
31 03/05/2018 13:12:43 72.70, -26.32 78.87 03/05/2018 13:12:12 72.71, -26.35 78.88 0.93 31
32 03/05/2018 14:03:27 -72.71, 140.99 101.15 03/05/2018 14:02:54 -72.69, 140.94 101.15 2.25 33
33 03/05/2018 14:54:13 72.71, -51.71 78.85 03/05/2018 14:53:34 72.69, -51.73 78.84 2.72 39
34 03/05/2018 15:44:57 -72.71, 115.60 101.17 03/05/2018 15:44:15 -72.72, 115.66 101.15 2.20 42
35 03/05/2018 16:35:43 72.72, -77.10 78.83 03/05/2018 16:34:55 72.71, -77.01 78.83 2.73 48
36 03/05/2018 17:26:27 -72.72, 90.22 101.19 03/05/2018 17:25:37 -72.70, 90.28 101.20 2.98 50
37 03/05/2018 18:17:12 72.67,-102.38 78.75 03/05/2018 18:16:17 72.69,-102.40 78.79 2.65 55
38 03/05/2018 19:07:56 -72.67, 64.93 101.27 03/05/2018 19:06:59 -72.68, 64.89 101.25 1.41 57
39 03/05/2018 19:58:42 72.68,-127.76 78.73 03/05/2018 19:57:39 72.67,-127.78 78.74 0.83 63
40 03/05/2018 20:49:26 -72.68, 39.55 101.29 03/05/2018 20:48:21 -72.65, 39.51 101.29 2.94 65
41 03/05/2018 21:40:12 72.68,-153.15 78.71 03/05/2018 21:39:00 72.70,-153.06 78.74 3.52 72
42 03/05/2018 22:30:56 -72.68, 14.16 101.31 03/05/2018 22:29:42 -72.68, 14.23 101.29 2.18 74
43 03/05/2018 23:21:37 72.48,-178.12 78.46 03/05/2018 23:20:24 72.52,-178.76 78.56 21.77 73
44 03/06/2018 00:12:20 -72.44, -10.71 101.61 03/06/2018 00:11:07 -72.46, -11.57 101.52 28.82 73
45 03/06/2018 01:03:01 72.18, 157.10 78.11 03/06/2018 01:01:52 72.20, 155.25 78.25 62.69 69
46 03/06/2018 01:53:44 -72.14, -35.50 101.96 03/06/2018 01:52:35 -72.13, -37.55 101.83 69.95 69




NCC Satellite Simultaneous Nadir Overpasses (SNOs) Prediction Service
